Location: Cisewo
(53.3833°N, 14.9000°E)
Time: 13:12:15
(UTC+00:00)

USA 229 - Pass Details

Date: 03 August 2021
Orbit: 956 x 1256 km, 63.5° (Epoch: 08 August)

Event Time Altitude Azimuth Distance (km) Brightness Sun altitude
Rises 20:21:01 0° 311° (NW) 3,916 8.7 -10.9°
Reaches altitude 10° 20:23:36 10° 312° (NW) 2,998 7.6 -11.1°
Maximum altitude 20:30:50 87° 226° (SW) 1,186 3.9 -11.8°
Enters shadow 20:37:19 16° 137° (SE) 2,764 5.2 -12.4°
